TimeCST,TemperatureF,Dew PointF,Humidity,Sea Level PressureIn,VisibilityMPH,Wind Direction,Wind SpeedMPH,Gust SpeedMPH,PrecipitationIn,Events,Conditions,WindDirDegrees,DateUTC
12:53 AM,64.9,64.9,100,30.12,6.0,East,11.5,-,0.21,Rain,Heavy Rain,100,2013-01-10 06:53:00
1:09 AM,64.4,64.4,100,30.08,4.0,East,8.1,-,0.06,Rain-Thunderstorm,Heavy Rain,80,2013-01-10 07:09:00
1:24 AM,64.4,64.4,100,30.08,8.0,ENE,8.1,-,0.08,Rain,Rain,70,2013-01-10 07:24:00
1:53 AM,64.9,64.0,97,30.09,5.0,East,6.9,-,0.13,Rain,Heavy Rain,80,2013-01-10 07:53:00
2:53 AM,64.0,64.0,100,30.11,2.5,SW,10.4,-,0.21,Rain,Heavy Rain,230,2013-01-10 08:53:00
3:01 AM,64.4,64.4,100,30.09,0.8,ESE,6.9,-,0.32,Rain,Heavy Rain,110,2013-01-10 09:01:00
3:05 AM,64.4,64.4,100,30.08,1.0,NE,6.9,-,0.41,Rain,Heavy Rain,50,2013-01-10 09:05:00
3:12 AM,64.4,64.4,100,30.07,2.0,ENE,9.2,-,0.47,Rain-Thunderstorm,Heavy Thunderstorms and Rain,60,2013-01-10 09:12:00
3:17 AM,64.4,64.4,100,30.07,3.0,NNE,5.8,-,0.49,Rain-Thunderstorm,Heavy Thunderstorms and Rain,30,2013-01-10 09:17:00
3:30 AM,64.4,64.4,100,30.08,-9999.0,North,-9999.0,-,0.54,,Unknown,0,2013-01-10 09:30:00
3:53 AM,-9999,-9999,N/A,30.07,-9999.0,North,-9999.0,-,0.54,,Unknown,0,2013-01-10 09:53:00
4:41 AM,-9999,-9999,N/A,30.05,-9999.0,North,-9999.0,-,N/A,Thunderstorm,Unknown,0,2013-01-10 10:41:00
4:53 AM,-9999,-9999,N/A,30.05,-9999.0,North,-9999.0,-,N/A,Thunderstorm,Thunderstorm,0,2013-01-10 10:53:00
5:16 AM,-9999,-9999,N/A,30.04,-9999.0,North,-9999.0,-,N/A,,Unknown,0,2013-01-10 11:16:00
5:41 AM,64.4,62.6,94,30.04,6.0,WNW,10.4,-,N/A,Rain,Heavy Rain,300,2013-01-10 11:41:00
5:53 AM,64.4,62.6,94,30.05,8.0,WNW,10.4,-,N/A,Rain,Rain,300,2013-01-10 11:53:00
6:53 AM,64.4,62.6,94,30.01,6.0,West,9.2,-,N/A,Rain,Rain,280,2013-01-10 12:53:00
7:53 AM,64.4,62.6,94,30.04,6.0,ENE,6.9,-,N/A,Rain,Rain,60,2013-01-10 13:53:00
8:06 AM,64.4,62.6,94,30.00,6.0,East,9.2,-,N/A,Rain,Light Rain,90,2013-01-10 14:06:00
8:53 AM,64.4,62.6,94,30.02,6.0,East,16.1,25.3,N/A,,Mostly Cloudy,90,2013-01-10 14:53:00
9:25 AM,62.6,60.8,94,30.01,7.0,East,16.1,25.3,N/A,,Mostly Cloudy,90,2013-01-10 15:25:00
9:53 AM,62.6,60.8,94,30.01,7.0,East,16.1,25.3,N/A,,Mostly Cloudy,90,2013-01-10 15:53:00
10:53 AM,63.0,62.1,97,30.06,10.0,SW,4.6,-,N/A,,Mostly Cloudy,220,2013-01-10 16:53:00
11:00 AM,62.6,62.6,100,30.05,10.0,SSW,3.5,-,N/A,,Unknown,200,2013-01-10 17:00:00
11:16 AM,62.6,62.6,100,30.05,10.0,SSW,3.5,-,N/A,,Overcast,210,2013-01-10 17:16:00
11:53 AM,63.0,62.1,97,30.05,10.0,SSW,4.6,-,N/A,,Overcast,200,2013-01-10 17:53:00
12:16 PM,62.6,62.6,100,30.01,10.0,Calm,Calm,-,N/A,,Overcast,0,2013-01-10 18:16:00
12:53 PM,63.0,63.0,100,30.03,10.0,SSE,5.8,-,N/A,,Overcast,150,2013-01-10 18:53:00
1:37 PM,64.4,62.6,94,29.99,3.0,South,5.8,-,0.00,Rain,Light Rain,170,2013-01-10 19:37:00
2:02 PM,64.4,62.6,94,29.99,6.0,South,8.1,-,0.00,,Overcast,170,2013-01-10 20:02:00
2:53 PM,64.9,63.0,93,30.00,10.0,South,6.9,-,0.00,,Overcast,180,2013-01-10 20:53:00
3:34 PM,66.2,62.6,88,29.99,10.0,South,13.8,-,N/A,,Mostly Cloudy,190,2013-01-10 21:34:00
3:53 PM,64.9,62.1,90,29.98,10.0,South,15.0,19.6,N/A,,Overcast,180,2013-01-10 21:53:00
4:42 PM,64.4,60.8,88,29.98,10.0,SSW,12.7,-,N/A,,Overcast,200,2013-01-10 22:42:00
4:53 PM,64.9,61.0,87,29.97,10.0,South,10.4,-,N/A,,Overcast,180,2013-01-10 22:53:00
5:53 PM,63.0,61.0,93,29.98,10.0,South,6.9,-,N/A,,Mostly Cloudy,180,2013-01-10 23:53:00
6:00 PM,62.6,60.8,94,29.97,10.0,South,8.1,-,N/A,,Mostly Cloudy,190,2013-01-11 00:00:00
6:26 PM,62.6,60.8,94,29.98,10.0,SSW,5.8,-,N/A,,Overcast,210,2013-01-11 00:26:00
6:53 PM,63.0,60.1,90,29.99,10.0,SSW,4.6,-,N/A,,Overcast,210,2013-01-11 00:53:00
7:13 PM,62.6,60.8,94,29.98,10.0,SSW,6.9,-,N/A,,Overcast,210,2013-01-11 01:13:00
7:36 PM,62.6,60.8,94,29.99,5.0,SW,9.2,-,N/A,,Overcast,220,2013-01-11 01:36:00
7:53 PM,62.1,61.0,96,30.01,4.0,SSW,6.9,-,N/A,,Overcast,200,2013-01-11 01:53:00
8:30 PM,62.6,60.8,94,30.00,8.0,SW,6.9,-,N/A,,Overcast,220,2013-01-11 02:30:00
8:43 PM,62.6,60.8,94,30.01,7.0,SW,5.8,-,N/A,,Overcast,220,2013-01-11 02:43:00
8:53 PM,61.0,61.0,100,30.02,7.0,SW,5.8,-,0.00,Rain,Light Rain,220,2013-01-11 02:53:00
9:53 PM,61.0,60.1,97,30.04,10.0,SW,5.8,-,0.00,Rain,Light Rain,230,2013-01-11 03:53:00
10:53 PM,61.0,60.1,97,30.04,10.0,SW,3.5,-,0.00,,Overcast,220,2013-01-11 04:53:00
11:53 PM,60.1,59.0,96,30.04,10.0,WSW,4.6,-,N/A,,Mostly Cloudy,250,2013-01-11 05:53:00